Waarnemingen

Advertentie
Mijn weer
Malmo/Sturup, Zweden (2636): temperatuur & dauwpunt: 12.01.2021 04:00:00 - 18.01.2021 04:00:00 (CET)Malmo/Sturup, Zweden (2636): windsnelheid: 12.01.2021 04:00:00 - 18.01.2021 04:00:00 (CET)Malmo/Sturup, Zweden (2636): windrichting: 12.01.2021 04:00:00 - 18.01.2021 04:00:00 (CET)Malmo/Sturup, Zweden (2636): luchtdruk: 12.01.2021 04:00:00 - 18.01.2021 04:00:00 (CET)Malmo/Sturup, Zweden (2636): zicht: 12.01.2021 04:00:00 - 18.01.2021 04:00:00 (CET)
Datum & Tijd tt [°C] td [°C] ff [km/u] ff [kn] dd ppp [hPa] vv [km]
18.01.2021 04:00:00 -3,0 -3,3 4 2 ZO 1018,9 8
18.01.2021 03:00:00 -2,5 -2,8 4 2 ZZO 1019,1 9
18.01.2021 02:00:00 -2,9 -3,2 0 0 N 1019,6 3,9
18.01.2021 01:00:00 -2,7 -3,0 0 0 N 1020,0 3,9
18.01.2021 00:00:00 -3,1 -3,4 4 2 OZO 1020,4 4,6
17.01.2021 23:00:00 -2,6 -2,9 0 0 N 1020,5 4,0
17.01.2021 22:00:00 -2,0 -2,3 5 3 Z 1020,7 10
17.01.2021 21:00:00 -2,1 -2,5 5 3 Z 1021,1 8
17.01.2021 20:00:00 -1,2 -1,6 5 3 Z 1021,1 9
17.01.2021 19:00:00 -1,1 -1,7 5 3 O 1021,1 10
17.01.2021 18:00:00 -1,0 -1,3 5 3 NNO 1021,1 5
17.01.2021 17:00:00 -0,8 -1,2 5 3 WNW 1021,0 5
17.01.2021 16:00:00 -0,4 -0,7 8 4 ZZW 1020,6 7
17.01.2021 15:00:00 -0,4 -0,7 5 3 ZZW 1020,2 5
17.01.2021 14:00:00 -0,2 -0,5 8 4 Z 1020,1 10
17.01.2021 13:00:00 -0,4 -0,7 8 4 Z 1020,3 1,0
17.01.2021 12:00:00 0,1 -0,8 9 5 Z 1020,3 9
17.01.2021 11:00:00 0,3 -0,8 9 5 Z 1020,1 10
17.01.2021 10:00:00 -0,2 -1,0 9 5 O 1019,5 10
17.01.2021 09:00:00 -1,0 -1,4 8 4 O 1019,1 10
17.01.2021 08:00:00 -1,1 -1,7 16 9 OZO 1018,9 0,4
17.01.2021 07:00:00 -2,6 -3,4 5 3 ONO 1018,3 10
17.01.2021 06:00:00 -3,2 -3,7 4 2 NNO 1018,2 10
17.01.2021 05:00:00 -3,3 -3,8 5 3 N 1018,1 10
17.01.2021 04:00:00 -3,6 -4,4 5 3 NNW 1018,2 10
17.01.2021 03:00:00 -3,7 -4,5 8 4 W 1018,4 10
17.01.2021 02:00:00 -4,1 -4,9 5 3 ONO 1018,5 10
17.01.2021 01:00:00 -4,5 -5,5 5 3 - 1018,7 10
17.01.2021 00:00:00 -5,1 -6,1 5 3 NNW 1019,2 10
16.01.2021 23:00:00 -6,0 -7,5 8 4 NO 1019,0 10
16.01.2021 22:00:00 -5,8 -7,0 5 3 N 1019,5 10
16.01.2021 21:00:00 -5,5 -7,3 9 5 NNW 1019,3 10
16.01.2021 20:00:00 -4,4 -5,6 16 9 N 1019,0 10
16.01.2021 19:00:00 -4,7 -5,7 15 8 NNW 1019,4 10
16.01.2021 18:00:00 -3,7 -5,2 15 8 NNW 1019,5 10
16.01.2021 17:00:00 -3,4 -5,0 13 7 NW 1019,6 10
16.01.2021 16:00:00 -2,9 -4,9 21 11 NW 1020,0 10
16.01.2021 15:00:00 -2,1 -4,3 18 10 NNW 1019,8 10
16.01.2021 14:00:00 -2,5 -4,7 24 13 NW 1020,4 10
16.01.2021 13:00:00 -2,4 -6,1 16 9 NW 1021,1 10
16.01.2021 12:00:00 -3,2 -4,3 13 7 NW 1021,4 10
16.01.2021 11:00:00 -5,1 -5,8 15 8 NNW 1022,3 9
16.01.2021 10:00:00 -6,4 -7,8 13 7 NW 1022,6 10
16.01.2021 09:00:00 -8,6 -9,9 11 6 NW 1023,1 10
16.01.2021 08:00:00 -8,1 -9,4 13 7 NNW 1023,1 10
16.01.2021 07:00:00 -8,0 -9,6 16 9 NW 1023,8 10
16.01.2021 06:00:00 -9,2 -10,8 15 8 NNW 1024,2 10
16.01.2021 05:00:00 -10,1 -11,7 8 4 NNW 1024,6 10
16.01.2021 04:00:00 -10,9 -12,4 11 6 WNW 1025,2 10
16.01.2021 03:00:00 -10,9 -12,4 9 5 NNW 1025,7 10
16.01.2021 02:00:00 -10,7 -12,2 11 6 NNW 1025,7 10
16.01.2021 01:00:00 -10,8 -12,1 13 7 N 1025,7 10
16.01.2021 00:00:00 -9,8 -10,9 8 4 N 1026,1 10
15.01.2021 23:00:00 -9,7 -11,5 13 7 N 1026,3 10
15.01.2021 22:00:00 -9,2 -11,0 9 5 N 1026,3 10
15.01.2021 21:00:00 -8,6 -10,7 8 4 N 1026,2 10
15.01.2021 20:00:00 -7,7 -10,2 5 3 N 1026,2 10
15.01.2021 19:00:00 -7,6 -10,0 8 4 N 1026,0 10
15.01.2021 18:00:00 -7,9 -9,7 11 6 N 1026,1 10
15.01.2021 17:00:00 -7,5 -9,4 15 8 NNW 1026,0 10
15.01.2021 16:00:00 -6,3 -9,0 18 10 NNW 1025,8 10
15.01.2021 15:00:00 -5,5 -8,6 22 12 NNW 1025,4 10
15.01.2021 14:00:00 -5,4 -9,0 22 12 N 1025,3 10
15.01.2021 13:00:00 -5,7 -8,9 24 13 N 1025,3 10
15.01.2021 12:00:00 -5,9 -9,0 22 12 N 1025,5 10
15.01.2021 11:00:00 -6,5 -9,1 22 12 N 1025,0 10
15.01.2021 10:00:00 -6,5 -9,1 21 11 NNW 1025,0 10
15.01.2021 09:00:00 -7,3 -9,2 18 10 NNW 1024,8 10
15.01.2021 08:00:00 -6,7 -9,3 15 8 N 1024,4 10
15.01.2021 07:00:00 -5,5 -9,2 16 9 NNO 1023,7 10
15.01.2021 06:00:00 -4,6 -8,4 13 7 N 1023,3 10
15.01.2021 05:00:00 -3,8 -6,7 15 8 N 1023,2 10
15.01.2021 04:00:00 -3,6 -6,2 16 9 N 1022,8 10
15.01.2021 03:00:00 -3,2 -5,4 16 9 N 1022,6 10
15.01.2021 02:00:00 -3,0 -5,0 18 10 N 1022,5 10
15.01.2021 01:00:00 -2,7 -4,6 15 8 NNW 1022,4 10
15.01.2021 00:00:00 -2,9 -4,8 16 9 NNW 1022,7 10
14.01.2021 23:00:00 -2,5 -4,5 15 8 NNW 1022,6 10
14.01.2021 22:00:00 -2,7 -4,8 11 6 NNW 1022,3 10
14.01.2021 21:00:00 -2,2 -4,2 16 9 N 1022,1 10
14.01.2021 20:00:00 -1,8 -4,1 21 11 N 1022,1 10
14.01.2021 19:00:00 -1,4 -3,9 24 13 N 1021,5 10
14.01.2021 18:00:00 -0,7 -2,4 15 8 N 1021,6 10
14.01.2021 17:00:00 -0,9 -3,3 21 11 N 1021,1 10
14.01.2021 16:00:00 -1,2 -3,2 21 11 N 1020,9 10
14.01.2021 15:00:00 -0,1 -2,3 18 10 N 1020,1 10
14.01.2021 14:00:00 0,7 -1,9 18 10 N 1019,7 10
14.01.2021 13:00:00 0,8 -1,9 18 10 N 1019,2 10
14.01.2021 12:00:00 0,6 -1,8 18 10 NNO 1019,1 10
14.01.2021 11:00:00 0,7 -1,5 13 7 N 1018,3 10
14.01.2021 10:00:00 0,5 -1,9 24 13 NNO 1017,6 10
14.01.2021 09:00:00 -0,2 -1,6 22 12 N 1016,3 10
14.01.2021 08:00:00 -0,6 -2,0 16 9 N 1015,5 10
14.01.2021 07:00:00 -0,7 -2,1 18 10 N 1014,5 10
14.01.2021 06:00:00 0,2 -1,2 18 10 NNW 1013,7 10
14.01.2021 05:00:00 0,0 -1,4 18 10 NNW 1012,9 10
14.01.2021 04:00:00 -0,2 -1,6 22 12 N 1011,9 10
14.01.2021 03:00:00 -0,2 -1,6 26 14 NNO 1010,8 10
14.01.2021 02:00:00 0,1 -1,3 24 13 N 1009,8 10
14.01.2021 01:00:00 -0,2 -1,6 24 13 N 1009,0 10
14.01.2021 00:00:00 0,1 -1,3 24 13 NNO 1007,3 10
13.01.2021 23:00:00 0,3 0,0 26 14 NNO 1005,1 0,6
13.01.2021 22:00:00 0,5 -0,1 35 19 NO 1002,8 3,6
13.01.2021 21:00:00 0,6 0,0 26 14 NNO 1000,6 3,6
13.01.2021 20:00:00 0,7 0,0 24 13 NNO 998,8 2,4
13.01.2021 19:00:00 0,4 0,1 16 9 NNO 997,2 10
13.01.2021 18:00:00 0,4 0,1 11 6 N 996,3 4,0
13.01.2021 17:00:00 0,4 0,1 8 4 NO 995,9 2,2
13.01.2021 16:00:00 0,3 0,0 0 0 N 995,6 2,2
13.01.2021 15:00:00 1,7 1,1 8 4 ZW 995,3 7
13.01.2021 14:00:00 2,0 1,1 13 7 WZW 995,5 10
13.01.2021 13:00:00 1,0 0,7 9 5 ZZW 996,2 7
13.01.2021 12:00:00 1,4 0,8 22 12 ZW 997,0 8
13.01.2021 11:00:00 1,1 0,5 21 11 ZW 998,0 8
13.01.2021 10:00:00 1,4 0,5 18 10 ZW 998,5 10
13.01.2021 09:00:00 1,4 -0,2 21 11 ZW 999,1 10
13.01.2021 08:00:00 1,3 0,0 21 11 WZW 999,2 10
13.01.2021 07:00:00 1,4 -0,1 16 9 WZW 999,3 10
13.01.2021 06:00:00 1,8 0,0 16 9 WZW 999,5 10
13.01.2021 05:00:00 1,8 0,0 16 9 WZW 999,6 10
13.01.2021 04:00:00 1,6 -0,2 18 10 WZW 999,5 10
13.01.2021 03:00:00 1,1 -0,1 15 8 ZW 999,5 10
13.01.2021 02:00:00 1,1 -0,1 16 9 WZW 999,7 10
13.01.2021 01:00:00 1,1 -0,4 13 7 WZW 999,6 10
13.01.2021 00:00:00 0,4 -1,0 13 7 WZW 999,5 10
12.01.2021 23:00:00 0,6 -0,9 15 8 W 999,3 10
12.01.2021 22:00:00 0,8 -0,7 15 8 W 999,3 10
12.01.2021 21:00:00 0,3 -1,5 16 9 W 998,8 10
12.01.2021 20:00:00 0,2 -1,2 16 9 W 998,6 10
12.01.2021 19:00:00 -0,1 -0,9 11 6 W 998,4 10
12.01.2021 18:00:00 0,3 -0,6 13 7 WNW 998,2 10
12.01.2021 17:00:00 0,2 -0,1 9 5 W 998,0 10
12.01.2021 16:00:00 0,9 0,0 15 8 WZW 997,7 2,0
12.01.2021 15:00:00 1,9 0,1 22 12 W 997,5 10
12.01.2021 14:00:00 2,7 0,4 16 9 W 997,6 10
12.01.2021 13:00:00 2,8 -0,1 16 9 W 997,6 10
12.01.2021 12:00:00 2,3 -0,1 16 9 W 998,0 10
12.01.2021 11:00:00 1,7 -0,2 11 6 WZW 998,0 10
12.01.2021 10:00:00 0,5 -0,9 11 6 W 997,9 10
12.01.2021 09:00:00 -0,1 -0,9 9 5 W 997,6 10
12.01.2021 08:00:00 0,5 -0,9 13 7 WNW 997,0 10
12.01.2021 07:00:00 1,2 0,3 24 13 NW 996,2 10
12.01.2021 06:00:00 1,9 1,0 21 11 WNW 995,4 10
12.01.2021 05:00:00 1,9 1,0 24 13 NW 994,6 10
12.01.2021 04:00:00 4,3 3,4 41 22 ZW 993,7 6

tt = temperatuur
td = dauwpunt
ff = windsnelheid
dd = windrichting
ppp = luchtdruk
vv = zicht

Weerstations in de omgeving